Date,TemperatureHighF,TemperatureAvgF,TemperatureLowF,DewpointHighF,DewpointAvgF,DewpointLowF,HumidityHigh,HumidityAvg,HumidityLow,PressureMaxIn,PressureMinIn,WindSpeedMaxMPH,WindSpeedAvgMPH,GustSpeedMaxMPH,PrecipitationSumIn
2013-3-1,29,28,25,27,22,18,89,78,64,0.00,40.00,13,8,19,0.00
2013-3-2,27,25,23,22,19,15,88,78,61,0.00,40.00,12,7,22,1.65
2013-3-3,26,23,21,22,17,13,90,78,62,0.00,40.00,13,7,19,3.85
2013-3-4,36,27,19,19,16,12,85,63,45,0.00,40.00,11,4,19,0.00
2013-3-5,43,32,20,21,15,8,77,51,24,0.00,40.00,19,7,28,0.00
2013-3-6,41,35,31,30,28,24,94,75,52,0.00,40.00,16,6,27,1.65
2013-3-7,40,33,30,29,27,25,90,80,56,0.00,40.00,12,6,21,0.00
2013-3-8,37,31,26,26,24,21,83,73,60,0.00,40.00,11,6,18,0.00
2013-3-9,54,39,24,28,25,20,89,61,30,0.00,40.00,10,4,15,0.00
2013-3-10,66,55,45,35,30,25,66,39,26,0.00,40.00,9,4,14,0.55
2013-3-11,58,54,44,48,35,29,91,51,33,0.00,40.00,18,6,31,5.03
2013-3-12,44,36,33,41,30,26,89,77,66,0.00,40.00,14,7,23,0.00
2013-3-13,34,29,25,29,24,18,89,79,63,0.00,40.00,19,8,29,3.85
2013-3-14,37,28,21,20,17,15,77,63,45,0.00,40.00,17,9,25,0.00
2013-3-15,48,37,27,35,25,19,83,62,50,0.00,40.00,16,6,23,0.00
2013-3-16,40,35,30,37,33,26,94,92,84,0.00,40.00,10,4,18,0.00
2013-3-17,33,30,28,26,23,21,87,77,66,0.00,40.00,7,2,14,0.00
2013-3-18,46,35,28,44,31,20,93,87,68,0.00,40.00,17,9,26,0.00
2013-3-19,46,34,29,44,24,15,92,68,50,0.00,40.00,25,12,42,0.55
2013-3-20,37,29,23,21,16,11,84,58,40,0.00,40.00,17,9,30,0.55
2013-3-21,28,22,15,21,12,6,87,68,49,0.00,40.00,12,8,22,2.75
2013-3-22,36,28,23,20,18,16,79,66,44,0.00,40.00,12,6,22,0.55
2013-3-23,44,34,25,24,19,17,73,57,34,0.00,40.00,11,4,17,0.00
2013-3-24,38,32,25,29,21,18,86,66,43,0.00,40.00,15,7,26,0.00
2013-3-25,35,32,30,32,30,29,94,92,87,0.00,40.00,15,6,22,20.72
2013-3-26,38,33,30,30,28,26,91,83,68,0.00,40.00,14,7,19,0.00
2013-3-27,41,35,31,29,26,21,90,70,47,0.00,40.00,17,9,27,1.10
2013-3-28,42,37,33,28,25,24,70,61,51,0.00,40.00,13,7,21,0.00
2013-3-29,51,41,32,28,24,18,74,51,27,0.00,40.00,13,5,19,0.00
2013-3-30,56,43,31,24,19,16,61,40,21,0.00,40.00,7,2,16,0.00
2013-3-31,48,45,42,44,32,-100,88,66,32,0.00,40.00,9,5,16,2.20